• In Uzbekistan
  • List of Countries
  • For 7 days
  • Water Temperature
  • Satellite Maps
  • Weather Map
  • Weather Widgets
  • user-avatar
    Login

    Hourly Weather Ilebo

    Today, 22 September, Friday

    Time Temperature Precipitation Wind Pressure Humidity
    00:00 +25°C° 0 mm 1 mps 722 mmHg 85%
    01:00 +25°C° 0 mm 1 mps 722 mmHg 87%
    02:00 +24°C° 0.1 mm 1 mps 722 mmHg 88%
    03:00 +24°C° 0.1 mm 1 mps 722 mmHg 89%
    04:00 +24°C° 0.1 mm 1 mps 722 mmHg 90%
    05:00 +24°C° 0.1 mm 1 mps 722 mmHg 87%
    06:00 +25°C° 0.1 mm 1 mps 722 mmHg 85%
    07:00 +26°C° 0 mm 1 mps 723 mmHg 81%
    08:00 +28°C° 0.2 mm 1 mps 723 mmHg 75%
    09:00 +30°C° 0.2 mm 1 mps 723 mmHg 68%
    10:00 +32°C° 0.2 mm 1 mps 724 mmHg 61%
    11:00 +32°C° 1.9 mm 1 mps 723 mmHg 63%
    12:00 +32°C° 1.9 mm 1 mps 722 mmHg 65%
    13:00 +32°C° 1.9 mm 1 mps 722 mmHg 67%
    14:00 +32°C° 0.5 mm 1 mps 722 mmHg 69%
    15:00 +31°C° 0.5 mm 1 mps 721 mmHg 70%
    16:00 +30°C° 0.5 mm 2 mps 721 mmHg 72%
    17:00 +29°C° 0 mm 1 mps 721 mmHg 76%
    18:00 +27°C° 0 mm 1 mps 721 mmHg 79%
    19:00 +26°C° 0 mm 1 mps 721 mmHg 83%
    20:00 +26°C° 0 mm 1 mps 722 mmHg 84%
    21:00 +25°C° 0 mm 1 mps 722 mmHg 84%
    22:00 +25°C° 0 mm 1 mps 722 mmHg 85%
    23:00 +23°C° 0.1 mm 0 mps 722 mmHg 85%

    Tomorrow, 23 September, Saturday

    Time Temperature Precipitation Wind Pressure Humidity
    00:00 +22°C° 0.1 mm 0 mps 722 mmHg 85%
    01:00 +22°C° 0.1 mm 0 mps 722 mmHg 85%
    02:00 +22°C° 1.5 mm 0 mps 722 mmHg 88%
    03:00 +22°C° 1.5 mm 0 mps 722 mmHg 91%
    04:00 +23°C° 1.5 mm 1 mps 722 mmHg 94%
    05:00 +22°C° 0.2 mm 0 mps 723 mmHg 93%
    06:00 +22°C° 0.2 mm 0 mps 723 mmHg 92%
    07:00 +23°C° 0.2 mm 0 mps 724 mmHg 91%
    08:00 +26°C° 0.5 mm 1 mps 724 mmHg 88%
    09:00 +27°C° 0.5 mm 1 mps 724 mmHg 85%
    10:00 +28°C° 0.5 mm 2 mps 725 mmHg 81%
    11:00 +30°C° 0.3 mm 2 mps 724 mmHg 72%
    12:00 +32°C° 0.3 mm 2 mps 723 mmHg 63%
    13:00 +34°C° 0.3 mm 2 mps 723 mmHg 54%
    14:00 +34°C° 0 mm 2 mps 722 mmHg 56%
    15:00 +32°C° 0 mm 2 mps 722 mmHg 58%
    16:00 +32°C° 0 mm 2 mps 721 mmHg 61%
    17:00 +30°C° 0.1 mm 2 mps 722 mmHg 68%
    18:00 +28°C° 0.1 mm 1 mps 722 mmHg 75%
    19:00 +26°C° 0.1 mm 1 mps 722 mmHg 82%
    20:00 +26°C° 0 mm 1 mps 723 mmHg 84%
    21:00 +25°C° 0 mm 1 mps 723 mmHg 86%
    22:00 +25°C° 0 mm 1 mps 723 mmHg 88%
    23:00 +25°C° 0.1 mm 1 mps 723 mmHg 88%

    Day after tomorrow, 24 September, Sunday

    Time Temperature Precipitation Wind Pressure Humidity
    00:00 +24°C° 0.1 mm 1 mps 723 mmHg 88%
    01:00 +24°C° 0.1 mm 1 mps 723 mmHg 88%
    02:00 +24°C° 0.1 mm 1 mps 723 mmHg 89%
    03:00 +24°C° 0.1 mm 1 mps 723 mmHg 89%
    04:00 +22°C° 0.1 mm 0 mps 723 mmHg 90%
    05:00 +22°C° 0.2 mm 0 mps 723 mmHg 90%
    06:00 +22°C° 0.2 mm 0 mps 724 mmHg 91%
    07:00 +22°C° 0.2 mm 0 mps 724 mmHg 91%
    08:00 +25°C° 0.4 mm 1 mps 725 mmHg 90%
    09:00 +25°C° 0.4 mm 1 mps 725 mmHg 90%
    10:00 +26°C° 0.4 mm 1 mps 725 mmHg 89%
    11:00 +27°C° 0 mm 2 mps 724 mmHg 79%
    12:00 +29°C° 0 mm 2 mps 723 mmHg 69%
    13:00 +31°C° 0 mm 2 mps 722 mmHg 59%
    14:00 +31°C° 0 mm 2 mps 722 mmHg 60%
    15:00 +31°C° 0 mm 2 mps 721 mmHg 60%
    16:00 +31°C° 0 mm 1 mps 721 mmHg 60%
    17:00 +29°C° 0 mm 1 mps 721 mmHg 67%
    18:00 +27°C° 0 mm 1 mps 722 mmHg 74%
    19:00 +26°C° 0 mm 1 mps 722 mmHg 80%
    20:00 +25°C° 0 mm 1 mps 723 mmHg 82%
    21:00 +25°C° 0 mm 1 mps 723 mmHg 84%
    22:00 +24°C° 0 mm 1 mps 723 mmHg 86%
    23:00 +24°C° 0.1 mm 1 mps 723 mmHg 88%

    25 September, Monday

    Time Temperature Precipitation Wind Pressure Humidity
    00:00 +24°C° 0.1 mm 1 mps 722 mmHg 89%
    01:00 +21°C° 0.1 mm 0 mps 722 mmHg 90%
    02:00 +21°C° 0 mm 0 mps 722 mmHg 91%
    03:00 +21°C° 0 mm 0 mps 722 mmHg 92%
    04:00 +21°C° 0 mm 0 mps 722 mmHg 92%
    05:00 +22°C° 0.1 mm 0 mps 723 mmHg 91%
    06:00 +22°C° 0.1 mm 0 mps 723 mmHg 90%
    07:00 +23°C° 0.1 mm 0 mps 724 mmHg 89%
    08:00 +26°C° 0.8 mm 1 mps 724 mmHg 85%
    09:00 +27°C° 0.8 mm 1 mps 724 mmHg 81%
    10:00 +28°C° 0.8 mm 1 mps 724 mmHg 77%
    11:00 +29°C° 1.1 mm 1 mps 724 mmHg 75%
    12:00 +29°C° 1.1 mm 1 mps 723 mmHg 72%
    13:00 +30°C° 1.1 mm 1 mps 722 mmHg 70%
    14:00 +30°C° 0.3 mm 1 mps 722 mmHg 70%
    15:00 +30°C° 0.3 mm 1 mps 721 mmHg 71%
    16:00 +29°C° 0.3 mm 1 mps 721 mmHg 71%
    17:00 +28°C° 0 mm 1 mps 721 mmHg 76%
    18:00 +27°C° 0 mm 1 mps 722 mmHg 81%
    19:00 +25°C° 0 mm 1 mps 722 mmHg 86%
    20:00 +25°C° 0 mm 1 mps 723 mmHg 87%
    21:00 +25°C° 0 mm 1 mps 723 mmHg 88%
    22:00 +24°C° 0 mm 1 mps 723 mmHg 90%
    23:00 +24°C° 0.1 mm 1 mps 723 mmHg 90%

    26 September, Tuesday

    Time Temperature Precipitation Wind Pressure Humidity
    00:00 +24°C° 0.1 mm 1 mps 722 mmHg 91%
    01:00 +24°C° 0.1 mm 1 mps 722 mmHg 91%
    02:00 +23°C° 0.1 mm 1 mps 722 mmHg 92%
    03:00 +21°C° 0.1 mm 0 mps 722 mmHg 93%
    04:00 +21°C° 0.1 mm 0 mps 722 mmHg 93%
    05:00 +22°C° 0 mm 0 mps 723 mmHg 91%
    06:00 +22°C° 0 mm 0 mps 723 mmHg 90%
    07:00 +23°C° 0 mm 0 mps 724 mmHg 88%
    08:00 +26°C° 0.2 mm 1 mps 724 mmHg 85%
    09:00 +27°C° 0.2 mm 1 mps 724 mmHg 82%
    10:00 +28°C° 0.2 mm 1 mps 724 mmHg 78%
    11:00 +29°C° 0.3 mm 1 mps 723 mmHg 71%
    12:00 +31°C° 0.3 mm 1 mps 722 mmHg 63%
    13:00 +32°C° 0.3 mm 1 mps 721 mmHg 55%
    14:00 +32°C° 0 mm 1 mps 721 mmHg 56%
    15:00 +32°C° 0 mm 1 mps 721 mmHg 57%
    16:00 +29°C° 0 mm 0 mps 721 mmHg 58%
    17:00 +29°C° 0.1 mm 1 mps 721 mmHg 65%
    18:00 +27°C° 0.1 mm 1 mps 722 mmHg 73%
    19:00 +25°C° 0.1 mm 1 mps 722 mmHg 80%
    20:00 +25°C° 0.1 mm 1 mps 722 mmHg 84%
    21:00 +24°C° 0.1 mm 1 mps 723 mmHg 88%
    22:00 +24°C° 0.1 mm 1 mps 723 mmHg 92%
    23:00 +24°C° 0.1 mm 1 mps 722 mmHg 93%

    27 September, Wednesday

    Time Temperature Precipitation Wind Pressure Humidity
    00:00 +23°C° 0.1 mm 1 mps 722 mmHg 95%
    01:00 +23°C° 0.1 mm 1 mps 722 mmHg 96%
    02:00 +23°C° 0 mm 1 mps 722 mmHg 96%
    03:00 +21°C° 0 mm 0 mps 722 mmHg 96%
    04:00 +21°C° 0 mm 0 mps 722 mmHg 96%
    05:00 +21°C° 0 mm 0 mps 723 mmHg 93%
    06:00 +22°C° 0 mm 0 mps 723 mmHg 89%
    07:00 +23°C° 0 mm 0 mps 724 mmHg 86%
    08:00 +25°C° 0.1 mm 0 mps 724 mmHg 78%
    09:00 +29°C° 0.1 mm 1 mps 724 mmHg 70%
    10:00 +31°C° 0.1 mm 1 mps 724 mmHg 63%
    11:00 +31°C° 1.1 mm 1 mps 723 mmHg 65%
    12:00 +31°C° 1.1 mm 1 mps 722 mmHg 68%
    13:00 +30°C° 1.1 mm 1 mps 721 mmHg 71%
    14:00 +30°C° 0.1 mm 1 mps 721 mmHg 69%
    15:00 +31°C° 0.1 mm 1 mps 720 mmHg 67%
    16:00 +31°C° 0.1 mm 1 mps 720 mmHg 65%
    17:00 +29°C° 0 mm 1 mps 721 mmHg 71%
    18:00 +27°C° 0 mm 1 mps 721 mmHg 77%
    19:00 +24°C° 0 mm 0 mps 722 mmHg 83%
    20:00 +23°C° 0.1 mm 0 mps 722 mmHg 84%
    21:00 +23°C° 0.1 mm 0 mps 722 mmHg 85%
    22:00 +23°C° 0.1 mm 0 mps 722 mmHg 85%
    23:00 +23°C° 0.1 mm 0 mps 722 mmHg 86%
    Show more